Other Public Products
Issued by NWS Charleston, SC

Current Version | Previous Version | Text Only | Print | Product List | Glossary Off
Versions: 1 2 3 4 5 6 7 8 9 10 11 12 13 14 15 16 17 18 19 20 21 22 23 24 25 26 27 28 29 30 31 32 33 34 35 36 37 38 39 40 41 42 43 44 45 46 47 48 49 50

257
FPUS82 KCHS 180912
OPUCHS

TEST...KCHS/KSAV Gateway Observations...TEST
National Weather Service Charleston SC
400 AM EST SUN FEB 18 2018

NOTE: "fair" indicates few or no clouds below 12,000 feet with no
significant weather and/or obstructions to visibility.

SCZ050-WAZ558-NCZ071-TXZ119-213-PAZ071-DCZ001-FLZ074-172-MI076-
NYZ176-178-MAZ016-IL014-TNZ027-NJZ106-GAZ044-MD014-181000-

...Gateway Observations for Charleston International...

CITY           SKY/WX    TMP DP  RH WIND       PRES   REMARKS
Chas Airport   FAIR      63  60  90 SW7       30.11R
Seattle        MOCLDY    38  32  79 S23G32    29.61S WCI  27
Charlotte      CLOUDY    45  44  97 CALM      30.13S FOG
Dallas DFW     MOCLDY    48  45  89 CALM      30.15F
Dallas Love    MOCLDY    49  45  86 E6        30.16F
Philladelphia  CLOUDY    35  32  88 W14       30.07R WCI  26
Wash National  CLOUDY    35  33  92 SW6       30.12R WCI  30
Baltimore      FAIR      33  33 100 W8        30.10R WCI  26
Miami          FAIR      72  68  87 N3        30.18F
Detroit        CLOUDY    30  27  88 SW3       30.17R
Newark         MOCLDY    34  32  92 W8        30.02R WCI  27
Laguardia      CLOUDY    35  32  88 W9        29.99R WCI  28
J F K          CLOUDY    34  33  96 W12       30.00R WCI  25
Boston Logan   LGT SNOW  33  32  96 N6        29.88F FOG     WCI  28
Ft. Lauderdale FAIR      70  69  97 NW7       30.17F
Chicago O`Hare FAIR      21  18  88 SW6       30.22R WCI  13
Chicago Midway FAIR      24  21  88 SW3       30.24R
Houston Bush   CLOUDY    60  56  86 NE7       30.12F
Houston Hobby  CLOUDY    62  59  90 N8        30.11S
Nashville      FAIR      39  35  86 N5        30.30R WCI  36
Atlanta        CLOUDY    54  50  86 NW16      30.17R

$$

GAZ044-118-TXZ119-213-NCZ071-DCZ001-MDZ014-506-PAZ021-071-NJZ106-
NYZ176-178-MAZ106-OHZ011-021-055-MIZ076-KYZ091-ILZ014-INZ047-
MNZ060-ONZ431-181000-

...Gateway Observations for Savannah International...

CITY           SKY/WX    TMP DP  RH WIND       PRES   REMARKS
Savannah Arpt  FAIR      65  60  84 SW9       30.12F
Atlanta        CLOUDY    54  50  86 NW16      30.17R
Charlotte      CLOUDY    45  44  97 CALM      30.13S FOG
Dallas DFW     MOCLDY    48  45  89 CALM      30.15F
Houston Bush   CLOUDY    60  56  86 NE7       30.12F
Wash National  CLOUDY    35  33  92 SW6       30.12R WCI  30
Wash Dulles    FAIR      31  31 100 S3        30.10R
Baltimore      FAIR      33  33 100 W8        30.10R WCI  26
Philadelphia   CLOUDY    35  32  88 W14       30.07R WCI  26
Newark         MOCLDY    34  32  92 W8        30.02R WCI  27
Laguardia      CLOUDY    35  32  88 W9        29.99R WCI  28
J F K          CLOUDY    34  33  96 W12       30.00R WCI  25
Boston         LGT SNOW  33  32  96 N6        29.88F FOG     WCI  28
Pittsburg      CLOUDY    34  32  92 W13       30.13R WCI  25
Akron          FLURRIES  34  29  82 W7        30.15R WCI  28
Cleveland      CLOUDY    33  30  88 W8        30.19R WCI  26
Cincinnati     MOCLDY    33  30  88 NW7       30.26R WCI  27
Columbus       CLOUDY    34  29  82 NW9       30.23R WCI  26
Detroit        CLOUDY    30  27  88 SW3       30.17R
Chicago O`Hare FAIR      21  18  88 SW6       30.22R WCI  13
Minneapolis    CLOUDY    20  10  65 E5        30.09F WCI  13
Indianapolis   FAIR      27  23  85 NW14      30.26R WCI  16
Toronto Canada MOCLDY    28  23  80 W7        30.05R WCI  21

$$




USA.gov is the U.S. government's official web portal to all federal, state and local government web resources and services.